Location: Big Meadows
(38.5260°N, 78.4400°W)
Time: 17:12:31
(UTC-04:00)

Daily predictions for brighter satellites

Satellite Brightness Start Highest point End
(mag) Time Altitude Azimuth Time Altitude Azimuth Time Altitude Azimuth
Cosmos 1500 Rocket 3.6 21:06:11 10° S 21:10:33 89° WSW 21:15:00 10° N
Envisat 3.8 21:06:32 10° SE 21:11:07 35° ENE 21:15:43 10° N
ERBS 4.3 21:09:49 10° SE 21:11:18 12° ESE 21:12:45 10° E
Tiangong 1 1.0 21:10:54 10° WSW 21:13:59 72° SSE 21:17:05 10° ENE
Cosmos 1833 4.4 21:08:42 10° SSW 21:14:25 83° WNW 21:20:07 10° NNE
NOSS 3-1 (C) 3.6 21:10:31 10° S 21:16:03 49° ESE 21:22:06 10° NE
Cosmos 2333 Rocket 4.2 21:17:05 10° NNE 21:20:29 16° NE 21:23:53 10° E
Cosmos 2151 3.2 21:17:46 10° S 21:21:49 51° E 21:25:54 10° NNE
S3M 4.4 21:17:26 10° NNW 21:23:30 66° W 21:29:34 10° S
Delta 2 Rocket 3.2 21:20:56 10° W 21:24:41 54° S 21:28:06 10° ESE
SL-23 DEB 4.5 21:20:24 10° NW 21:26:00 58° NNE 21:29:29 10° ESE
Cosmos 2058 3.7 21:22:48 10° SSE 21:26:28 33° E 21:30:09 10° NNE
H-2A R/B 4.1 21:22:59 10° SSW 21:26:34 38° W 21:30:08 10° NNW
Hubble Space Telescope 2.8 21:25:16 10° S 21:26:49 12° SSE 21:28:18 10° SE
Cosmos 2112 Rocket 4.2 21:23:11 10° NNW 21:28:24 62° ENE 21:33:37 10° SSE
Cosmos 2219 Rocket 3.6 21:28:16 10° N 21:32:43 24° NE 21:37:10 10° ESE
COSMOS 2428 3.2 21:27:31 10° N 21:32:59 46° ENE 21:37:58 12° SE
Nimbus 7 Rocket 4.4 21:28:53 10° NNE 21:34:41 62° ESE 21:40:29 10° S
Cosmos 1437 Rocket 3.6 21:33:40 10° NNW 21:37:22 49° W 21:41:06 10° S
deb Chang Zheng 4 3.6 21:33:36 10° NNE 21:37:58 87° ESE 21:42:19 10° SSW
Cosmos 2298 Rocket 4.3 21:34:40 10° S 21:39:46 49° ESE 21:44:53 10° NNE
Cosmos 304 Rocket 3.9 21:37:00 10° NNW 21:41:49 76° WSW 21:46:35 10° S
Cosmos 1726 3.4 21:38:38 10° NNE 21:41:52 26° ENE 21:44:08 15° SE
Sich 1 3.9 21:40:22 12° SSE 21:43:58 32° E 21:47:53 10° NNE
PSLV R/B 3.7 21:44:56 17° SE 21:46:58 42° ENE 21:49:53 10° N
Cosmos 1939 Rocket 2.9 21:43:56 10° S 21:47:51 80° WSW 21:51:46 10° NNW
Cosmos 1151 Rocket 3.5 21:45:03 10° NNW 21:49:19 60° W 21:53:35 10° S
Cosmos 1633 Rocket 3.7 21:46:59 13° SSE 21:50:22 36° E 21:54:22 10° NNE
CZ-4B R/B 4.1 21:46:05 10° NNE 21:50:59 39° E 21:55:24 12° SSE
Cosmos 2237 4.2 21:48:49 10° NNW 21:54:34 75° ENE 21:59:09 16° SSE
Meteor 1-4 Rocket 3.8 21:52:02 10° NNE 21:55:14 26° ENE 21:56:51 19° ESE
SPOT 5 2.8 21:51:24 14° SSE 21:55:23 73° ENE 22:00:15 10° N
DELTA 2 R/B (1) 4.1 21:50:11 10° W 21:55:26 44° SSW 21:59:15 18° SE
USA 245 3.6 21:59:33 20° E 21:59:50 21° ENE 22:01:40 10° NNE
Cosmos 2219 3.7 21:55:59 10° SSW 22:01:40 64° WNW 22:07:24 10° NNE
Cosmos 1680 Rocket 4.2 21:59:05 10° NNW 22:04:10 51° WSW 22:09:16 10° S
Cosmos 292 Rocket 4.3 22:00:48 10° N 22:05:21 43° ENE 22:08:03 22° SE
Cosmos 1805 Rocket 3.6 22:02:50 10° S 22:07:16 82° W 22:11:44 10° N
MetOp-B 4.1 22:03:02 16° SSE 22:07:18 75° ENE 22:12:40 10° N
Cosmos 2237 Rocket 3.4 22:02:27 10° N 22:07:25 30° ENE 22:10:50 17° ESE
H-2A R/B 3.6 22:05:52 16° ESE 22:08:45 24° ENE 22:13:01 10° NNE
Cosmos 2333 4.2 22:05:20 10° NNW 22:11:05 76° ENE 22:14:59 22° SSE
Cosmos 2082 4.2 22:07:50 16° SSE 22:11:55 38° ESE 22:17:08 10° NE
DELTA 2 R/B(2) 3.6 22:12:14 10° W 22:13:54 59° N 22:14:48 29° ENE
Cosmos 1898 Rocket 3.4 22:09:24 10° SSW 22:14:33 89° ESE 22:19:48 10° NNE
Cosmos 1271 Rocket 3.2 22:11:46 10° N 22:15:30 45° ENE 22:17:01 29° SE
Cosmos 2360 Rocket 3.5 22:12:02 10° NW 22:17:06 35° WSW 22:22:09 10° SSW
Cosmos 220 Rocket 4.0 22:13:44 13° S 22:17:37 64° ESE 22:22:01 10° NNE
Cosmos 858 Rocket 4.4 22:12:39 10° SSW 22:17:52 86° ESE 22:23:05 10° NNE
CZ-4C R/B 4.3 22:18:52 23° E 22:19:37 25° ENE 22:22:30 10° NNE
Iridium 2 4.3 22:19:28 31° SE 22:20:37 39° E 22:24:14 10° NNE
SPOT 1/Viking Rocket 3.5 22:17:51 23° SSE 22:21:04 70° ENE 22:26:13 10° N
NOSS 3-1 (A) 3.6 22:15:15 10° SW 22:21:05 74° NW 22:27:34 10° NNE
NOAA 11 4.4 22:18:01 24° SE 22:21:15 57° ENE 22:26:36 10° N
Cosmos 1626 3.3 22:21:47 25° E 22:22:05 26° E 22:25:14 10° NNE
Cosmos 1346 4.3 22:22:51 26° E 22:22:51 26° E 22:25:06 10° NNE
H-2A R/B 3.7 22:19:57 10° SSW 22:23:58 31° W 22:28:00 10° NW
Cosmos 1703 3.2 22:23:38 30° SSE 22:25:22 61° E 22:29:15 10° NNE
SL-14 R/B 3.6 22:23:01 13° SSW 22:26:31 65° W 22:30:30 10° N
Meteor 2-11 Rocket 4.5 22:20:42 10° N 22:26:52 83° W 22:31:28 18° S
Cosmos 2315 Rocket 4.5 22:21:39 10° NNW 22:27:43 58° W 22:33:35 11° S
Cosmos 1707 Rocket 3.9 22:23:28 10° NNW 22:27:48 62° W 22:30:45 20° S
Cosmos 2150 Rocket 4.4 22:22:25 10° SSW 22:27:50 69° WNW 22:33:18 10° NNE
YAOGAN 6 2.7 22:27:34 29° S 22:29:17 70° W 22:32:53 10° NNW
OTV 4 0.9 22:27:15 10° WSW 22:29:40 44° SSW 22:29:40 44° SSW
Cosmos 1666 Rocket 4.0 22:25:56 10° SSW 22:30:12 62° W 22:34:36 10° N
Cosmos 1241 Rocket 4.4 22:24:41 10° SSW 22:30:47 67° ESE 22:36:59 10° NE
Meteor 1-27 4.5 22:26:16 10° NNW 22:31:54 67° W 22:36:03 18° S
Terra 2.9 22:31:05 24° ESE 22:32:44 31° ENE 22:36:54 10° N
SL-08 RB Rocket 3.7 22:32:55 33° SE 22:34:47 65° ENE 22:39:15 10° N
ATLAS 2AS CENTAUR R/B 2.9 22:35:53 10° SSW 22:43:09 65° ESE 22:51:04 10° NE
Cosmos 1470 Rocket 3.4 22:42:22 38° SSE 22:43:55 71° E 22:48:13 10° NNE
Cosmos 2227 Rocket 2.1 22:39:39 14° SSW 22:44:28 76° ESE 22:50:08 10° NNE
Nadezhda 1 Rocket 4.0 22:38:26 10° N 22:44:30 64° E 22:47:23 32° SSE
Cosmos 1933 Rocket 3.5 22:43:16 37° SSE 22:44:55 70° E 22:49:23 10° NNE
Cosmos 1300 4.3 22:44:05 10° NNW 22:47:28 30° W 22:49:47 16° SW
ERBS 3.2 22:44:18 10° WSW 22:47:44 52° NW 22:51:09 10° NNE
NOSS 0 Rocket 3.9 22:44:25 10° NNW 22:50:37 88° ENE 22:53:28 34° SSE
Tiangong 1 2.4 22:47:46 10° WNW 22:50:42 38° N 22:52:17 21° NE
OAO 2 Rocket 3.4 22:46:27 10° WSW 22:51:41 59° S 22:53:39 36° ESE
ATLAS 3B R/B 3.4 22:49:12 10° NNW 22:55:50 42° NE 22:59:21 24° ESE
Cosmos 1745 Rocket 4.0 22:52:10 20° S 22:56:38 80° W 23:02:50 10° N
USA 32 4.5 22:56:59 10° NNW 23:02:09 58° W 23:04:53 27° SSW
SL-16 R/B 3.1 22:57:13 10° N 23:02:28 37° ENE 23:04:25 29° E
Lacrosse 4 Rocket 2.8 22:58:49 10° N 23:02:43 29° NE 23:03:42 27° E
Cosmos 1709 Rocket 4.2 23:02:51 38° SE 23:04:44 51° E 23:10:37 10° NNE
DMSP B5D2-2 4.0 23:00:07 10° NNE 23:05:19 65° ESE 23:06:47 45° SSE
Cosmos 2333 Rocket 2.2 22:59:40 10° NNW 23:05:27 81° WSW 23:07:32 41° SSE
ARGOS 3.7 23:03:30 28° SSW 23:06:11 53° W 23:11:27 10° NNW
Cosmos 1455 2.1 23:06:03 10° N 23:09:53 81° W 23:10:08 75° SSW
Cosmos 2297 Rocket 2.1 23:07:58 28° SSW 23:11:07 88° ESE 23:16:48 10° NNE
Cosmos 1933 4.0 23:11:45 10° N 23:15:26 41° ENE 23:15:26 41° ENE
COSMOS 2455 3.2 23:10:01 10° NNW 23:15:57 54° ENE 23:17:55 38° ESE
Cosmos 1386 Rocket 4.5 23:13:36 30° SSW 23:16:45 75° W 23:22:47 10° N
COSMOS 2428 4.5 23:12:32 10° NW 23:16:51 23° W 23:20:00 15° SW
Cosmos 2219 Rocket 2.8 23:11:33 10° NW 23:16:53 47° WSW 23:18:54 33° SSW
NOSS 2-3 (E) 4.1 23:18:12 48° ESE 23:18:12 48° ESE 23:23:09 10° NE
Cosmos 192 4.3 23:15:54 10° NNW 23:20:50 83° WSW 23:21:44 60° S
CARTOSAT-1 3.6 23:25:07 62° SW 23:25:35 68° W 23:29:54 10° NNW
Cosmos 1862 Rocket 4.0 23:22:40 10° NNW 23:26:53 52° W 23:27:33 47° SW
Cosmos 2181 Rocket 4.0 23:31:43 10° N 23:38:08 77° E 23:39:48 52° SSE
Cosmos 1980 4.4 23:34:14 10° NW 23:39:33 43° WSW 23:40:54 37° SW
CZ-4C R/B 4.4 23:37:18 10° NNW 23:43:05 27° NE 23:48:28 13° E
IGS 5A 4.1 23:43:40 47° W 23:43:43 47° W 23:47:45 10° NNW
Cosmos 2184 Rocket 4.4 23:43:47 43° ESE 23:44:28 44° E 23:50:17 10° NNE
SeaSat 1 3.8 23:43:30 26° ENE 23:44:35 29° NE 23:48:49 10° N
Cosmos 1869 4.4 23:41:01 10° NNW 23:44:45 36° W 23:44:53 36° W
NOSS 2-3 (C) 3.8 23:44:46 73° SSW 23:45:15 85° ESE 23:50:48 10° NE
Cosmos 1269 Rocket 3.9 23:40:33 10° NNW 23:45:53 80° WSW 23:46:29 69° S
H-2A R/B 2.9 23:46:30 36° SW 23:47:50 43° W 23:53:01 10° NNW
Cosmos 2237 Rocket 3.1 23:46:18 10° NW 23:51:31 37° WSW 23:52:39 34° SW
FALCON 9 R/B 3.1 23:31:05 10° W 23:51:52 66° SSW 23:54:02 47° SE
Meteor 1-26 Rocket 4.2 23:46:55 10° N 23:52:34 70° E 23:53:14 63° ESE
Cosmos 1869 Rocket 3.6 23:53:42 78° NW 23:53:42 78° NW 23:57:59 10° N
